Showing default

TDRS 6, 22314

Orbit data source: Space-Track

TDRS 6, 22314 is a payload satellite owned by GSFC (US) in GEO that was launched on Wed, 13 Jan 1993 UTC via an SPACE SHUTTLE launch vehicle from the Air Force Eastern Test Range (AFETR). Payload-class satellites include a variety of spacecraft equipped with specific instruments for various scientific and technological missions. These include communications satellites like Starlink; space stations such as the ISS; scientific satellites like the Hubble; Earth observation satellites from companies like Planet Labs, Umbra, and HawkEye 360; GPS; miniature CubeSats for education and research; and military/defense satellites.

Loading next visibility...
Identifier
22314, 1993-003B
Orbit
GEO
Country
Flag of USUS
Related business
Manufacturer
TRW
Mission
Operational Civil Communications
Bus & Motor
TDRS, AOCS
Mass
2,534 kg wet, ~1,673 kg dry
Launch date (UTC)
1993-01-13 (33 years ago)
Launch vehicle
SPACE SHUTTLE
Launch site
Air Force Eastern Test Range (AFETR)
Object type
Payload
Rocket body
Debris
Shape & HBR
Hex Cyl + 2 Pan, 8.7 m
Radar Cross Section
13.873 m², Large (>1 m²)

Expand to show TLE details & history
Last TLE update: 21 hours ago

TLE from 21 hours ago
0 TDRS 6
1 22314U 93003B   25260.23188083 -.00000308  00000-0  00000-0 0  9997
2 22314  14.1769 359.0643 0011296 189.4974 205.5380  1.00269248119672
Epoch: 2025-09-17T05:33Z
TLE epoch observation values (Epoch: 2025-09-17T05:33:54.503Z)
Latitude
8.06916°
Longitude
-46.67969°
Altitude
35,829.301 km
Speed
3.072 km/s
True Right ascension
02h 12m 49s
True Declination
8° 03' 40"
Sunlit
Object was in daylight at epoch
Visualization orbit readout
Latitude
Unknown
Longitude
Unknown
Altitude
Unknown
Speed
Unknown
Apparent Right ascension
Unknown
Apparent Declination
Unknown
Sunlit
N/A
Visualization observer readout
Local Sidereal Time
19:12:30
Azimuth
Unknown
Elevation
Unknown
Doppler factor
Unknown
Orbital elements
Apogee altitude
35,835.914 km
Perigee altitude
35,740.651 km
Semi-major axis
42,166.42 km
Eccentricity
0.00113
Inclination
14.1769°
RAAN
359.0643°
Arg. of periapsis
189.4974°
True anomaly
205.48227°
Mean anomaly
205.538°
Eccentric anomaly
205.51013°
Mean motion
0.25066 °/min
Orbital period
1,436.18 mins
BSTAR
0
Loading maneuver chart data...
Computing Atmospheric mass density...
Loading historical data...
Loading historical data...
Loading historical data...
Loading historical data...
Loading historical data...
Loading historical data...
Loading historical data...
Other satellites on launch #3 in the year 1993 (1993-01-13 UTC)

Documentation

Showing up to 5 results
|